EZY32MN EDDK-EGGP

Flight info

Callsign EZY32MN
Flight time 1h 7m
Altitude 38000
Route NVO2R/31R NVO Y868 SOGRI L608 DENUT L610 GILDA M14 STOAT L613 MOGLI UP6 LESTA
Aircraft A320/M-SDE3FGHIRWY/LB1

Departure

Time 2026-04-26 15:26
Airport Cologne Bonn Airport (EDDK)

Arrival

Time 2026-04-26 16:33
Airport Liverpool John Lennon Airport (EGGP)
Time Latitude Longitude Altitude Speed Heading
2026-04-26 14:41 50.87876 7.12450 230 ft 0 kts 288°
2026-04-26 15:13 50.87874 7.12460 232 ft 2 kts 288°
2026-04-26 15:14 50.87870 7.12478 232 ft 2 kts 288°
2026-04-26 15:14 50.87867 7.12494 234 ft 2 kts 288°
2026-04-26 15:14 50.87863 7.12511 233 ft 2 kts 288°
2026-04-26 15:14 50.87859 7.12531 232 ft 2 kts 288°
2026-04-26 15:15 50.87855 7.12552 232 ft 2 kts 300°
2026-04-26 15:15 50.87847 7.12570 232 ft 2 kts 324°
2026-04-26 15:15 50.87833 7.12580 235 ft 2 kts
2026-04-26 15:15 50.87817 7.12576 235 ft 2 kts 18°
2026-04-26 15:16 50.87800 7.12567 236 ft 3 kts 18°
2026-04-26 15:16 50.87783 7.12559 236 ft 3 kts 18°
2026-04-26 15:16 50.87771 7.12553 235 ft 1 kts 18°
2026-04-26 15:16 50.87769 7.12551 235 ft 0 kts 18°
2026-04-26 15:20 50.87772 7.12553 235 ft 4 kts 18°
2026-04-26 15:20 50.87781 7.12558 236 ft 1 kts 20°
2026-04-26 15:20 50.87783 7.12564 236 ft 2 kts 46°
2026-04-26 15:20 50.87791 7.12635 232 ft 10 kts 97°
2026-04-26 15:21 50.87748 7.12730 232 ft 15 kts 138°
2026-04-26 15:21 50.87662 7.12854 232 ft 15 kts 137°
2026-04-26 15:21 50.87586 7.12964 232 ft 14 kts 137°
2026-04-26 15:21 50.87501 7.13087 232 ft 20 kts 137°
2026-04-26 15:22 50.87384 7.13257 232 ft 20 kts 137°
2026-04-26 15:22 50.87262 7.13432 234 ft 27 kts 137°
2026-04-26 15:22 50.87133 7.13620 239 ft 25 kts 137°
2026-04-26 15:22 50.86990 7.13827 244 ft 28 kts 137°
2026-04-26 15:23 50.86895 7.13964 253 ft 17 kts 137°
2026-04-26 15:23 50.86800 7.14101 255 ft 18 kts 142°
2026-04-26 15:23 50.86694 7.14191 258 ft 18 kts 138°
2026-04-26 15:23 50.86586 7.14349 262 ft 25 kts 137°
2026-04-26 15:24 50.86457 7.14538 269 ft 25 kts 138°
2026-04-26 15:24 50.86321 7.14735 277 ft 23 kts 138°
2026-04-26 15:24 50.86191 7.14923 284 ft 28 kts 137°
2026-04-26 15:24 50.86071 7.15098 288 ft 20 kts 134°
2026-04-26 15:25 50.86075 7.15321 296 ft 25 kts 47°
2026-04-26 15:25 50.86155 7.15358 290 ft 21 kts 352°
2026-04-26 15:25 50.86387 7.15283 284 ft 27 kts 344°
2026-04-26 15:25 50.86556 7.15074 277 ft 35 kts 316°
2026-04-26 15:26 50.86873 7.14612 262 ft 98 kts 317°
2026-04-26 15:26 50.87539 7.13666 261 ft 154 kts 319°
2026-04-26 15:26 50.88077 7.12905 653 ft 158 kts 318°
2026-04-26 15:26 50.88896 7.11736 1461 ft 159 kts 321°
2026-04-26 15:27 50.90059 7.10084 2109 ft 183 kts 316°
2026-04-26 15:27 50.90807 7.08303 2525 ft 206 kts 292°
2026-04-26 15:27 50.91059 7.06806 3083 ft 211 kts 279°
2026-04-26 15:27 50.90974 7.04479 4006 ft 215 kts 256°
2026-04-26 15:28 50.90506 7.02196 4711 ft 231 kts 253°
2026-04-26 15:28 50.89961 6.99618 5284 ft 255 kts 253°
2026-04-26 15:28 50.89388 6.96924 6062 ft 265 kts 253°
2026-04-26 15:28 50.88783 6.94088 7033 ft 271 kts 253°
2026-04-26 15:29 50.88181 6.91280 7958 ft 275 kts 253°
2026-04-26 15:29 50.87562 6.88393 8949 ft 278 kts 254°
2026-04-26 15:29 50.86573 6.82417 10687 ft 289 kts 268°
2026-04-26 15:30 50.86296 6.75660 11796 ft 319 kts 269°
2026-04-26 15:30 50.86170 6.72126 12643 ft 323 kts 269°
2026-04-26 15:30 50.86040 6.68545 13491 ft 328 kts 268°
2026-04-26 15:31 50.85905 6.64931 14300 ft 332 kts 268°
2026-04-26 15:31 50.85611 6.57564 15737 ft 338 kts 268°
2026-04-26 15:31 50.85456 6.53823 16475 ft 342 kts 268°
2026-04-26 15:32 50.85197 6.47555 17675 ft 348 kts 268°
2026-04-26 15:32 50.84984 6.42388 18636 ft 352 kts 268°
2026-04-26 15:32 50.84821 6.38508 19259 ft 356 kts 268°
2026-04-26 15:33 50.84651 6.34582 19885 ft 359 kts 268°
2026-04-26 15:33 50.84481 6.30625 20514 ft 361 kts 268°
2026-04-26 15:33 50.84311 6.26644 21139 ft 364 kts 268°
2026-04-26 15:33 50.84139 6.22631 21750 ft 367 kts 268°
2026-04-26 15:34 50.83965 6.18639 22336 ft 370 kts 268°
2026-04-26 15:34 50.83784 6.14561 22927 ft 373 kts 268°
2026-04-26 15:34 50.83600 6.10447 23492 ft 376 kts 268°
2026-04-26 15:34 50.83412 6.06309 24063 ft 378 kts 268°
2026-04-26 15:35 50.83221 6.02149 24545 ft 380 kts 268°
2026-04-26 15:35 50.83060 5.97962 25028 ft 381 kts 272°
2026-04-26 15:35 50.83341 5.93790 25458 ft 381 kts 283°
2026-04-26 15:35 50.84030 5.89733 25930 ft 382 kts 290°
2026-04-26 15:36 50.84933 5.85767 26400 ft 384 kts 292°
2026-04-26 15:36 50.85892 5.81811 26855 ft 386 kts 292°
2026-04-26 15:36 50.86819 5.77797 27324 ft 389 kts 291°
2026-04-26 15:36 50.87668 5.73779 27769 ft 391 kts 289°
2026-04-26 15:37 50.88468 5.69646 28213 ft 394 kts 288°
2026-04-26 15:37 50.89227 5.65468 28650 ft 396 kts 288°
2026-04-26 15:37 50.89973 5.61255 29065 ft 397 kts 287°
2026-04-26 15:37 50.90720 5.57027 29499 ft 399 kts 287°
2026-04-26 15:38 50.91475 5.52785 29910 ft 401 kts 288°
2026-04-26 15:38 50.92242 5.48510 30335 ft 403 kts 288°
2026-04-26 15:38 50.93017 5.44223 30682 ft 405 kts 288°
2026-04-26 15:38 50.93796 5.39918 31015 ft 407 kts 288°
2026-04-26 15:39 50.94576 5.35597 31333 ft 409 kts 288°
2026-04-26 15:39 50.95358 5.31249 31651 ft 410 kts 288°
2026-04-26 15:39 50.96139 5.26889 31991 ft 411 kts 288°
2026-04-26 15:39 50.96652 5.24010 32292 ft 409 kts 288°
2026-04-26 15:40 50.97672 5.18263 32896 ft 407 kts 288°
2026-04-26 15:40 50.98436 5.13958 33395 ft 404 kts 287°
2026-04-26 15:40 50.99195 5.09684 33890 ft 402 kts 287°
2026-04-26 15:40 50.99950 5.05420 34340 ft 400 kts 287°
2026-04-26 15:41 51.00703 5.01169 34711 ft 399 kts 287°
2026-04-26 15:41 51.01452 4.96932 35039 ft 399 kts 287°
2026-04-26 15:41 51.02202 4.92675 35361 ft 399 kts 287°
2026-04-26 15:41 51.02947 4.88433 35694 ft 399 kts 287°
2026-04-26 15:42 51.03689 4.84183 35988 ft 399 kts 287°
2026-04-26 15:42 51.04430 4.79934 36289 ft 399 kts 287°
2026-04-26 15:42 51.05171 4.75679 36595 ft 399 kts 287°
2026-04-26 15:42 51.05914 4.71416 36880 ft 399 kts 287°
2026-04-26 15:43 51.06651 4.67164 37246 ft 399 kts 287°
2026-04-26 15:43 51.07377 4.62952 37522 ft 399 kts 287°
2026-04-26 15:43 51.08837 4.54421 38049 ft 400 kts 287°
2026-04-26 15:44 51.09566 4.50152 38256 ft 401 kts 287°
2026-04-26 15:44 51.11751 4.37336 38300 ft 399 kts 286°
2026-04-26 15:45 51.13914 4.24537 38301 ft 399 kts 286°
2026-04-26 15:46 51.16050 4.11787 38299 ft 398 kts 286°
2026-04-26 15:46 51.17236 4.04626 38294 ft 398 kts 286°
2026-04-26 15:47 51.19582 3.90430 38290 ft 398 kts 286°
2026-04-26 15:48 51.20988 3.81882 38288 ft 399 kts 286°
2026-04-26 15:48 51.22390 3.73324 38275 ft 398 kts 285°
2026-04-26 15:49 51.23774 3.64762 38287 ft 399 kts 285°
2026-04-26 15:49 51.24991 3.56107 38297 ft 399 kts 283°
2026-04-26 15:50 51.26088 3.47404 38294 ft 400 kts 282°
2026-04-26 15:50 51.27196 3.38695 38304 ft 400 kts 283°
2026-04-26 15:51 51.28321 3.29995 38296 ft 400 kts 282°
2026-04-26 15:51 51.29432 3.21355 38328 ft 400 kts 282°
2026-04-26 15:52 51.30547 3.12637 38339 ft 400 kts 282°
2026-04-26 15:52 51.31649 3.03924 38335 ft 400 kts 282°
2026-04-26 15:53 51.32732 2.95247 38336 ft 400 kts 282°
2026-04-26 15:53 51.33823 2.86522 38321 ft 400 kts 282°
2026-04-26 15:54 51.34918 2.77781 38330 ft 400 kts 282°
2026-04-26 15:54 51.35999 2.69053 38329 ft 400 kts 282°
2026-04-26 15:55 51.37072 2.60305 38332 ft 400 kts 282°
2026-04-26 15:55 51.38144 2.51564 38330 ft 400 kts 282°
2026-04-26 15:56 51.39206 2.42828 38329 ft 400 kts 282°
2026-04-26 15:56 51.40252 2.34141 38319 ft 400 kts 281°
2026-04-26 15:57 51.41299 2.25379 38320 ft 400 kts 281°
2026-04-26 15:57 51.42345 2.16609 38314 ft 400 kts 281°
2026-04-26 15:58 51.43382 2.07843 38313 ft 400 kts 281°
2026-04-26 15:58 51.44409 1.99109 38320 ft 401 kts 281°
2026-04-26 15:59 51.45482 1.90338 38303 ft 401 kts 282°
2026-04-26 15:59 51.46572 1.81569 38317 ft 401 kts 281°
2026-04-26 16:00 51.47593 1.72776 38316 ft 401 kts 281°
2026-04-26 16:00 51.48583 1.63961 38321 ft 401 kts 281°
2026-04-26 16:01 51.49575 1.55150 38321 ft 401 kts 281°
2026-04-26 16:01 51.50573 1.46364 38323 ft 401 kts 281°
2026-04-26 16:02 51.51563 1.37620 38323 ft 401 kts 280°
2026-04-26 16:02 51.52557 1.28765 38333 ft 401 kts 280°
2026-04-26 16:03 51.53534 1.19964 38335 ft 400 kts 280°
2026-04-26 16:03 51.54500 1.11157 38337 ft 400 kts 280°
2026-04-26 16:04 51.55461 1.02331 38335 ft 400 kts 280°
2026-04-26 16:04 51.56418 0.93507 38331 ft 400 kts 279°
2026-04-26 16:05 51.57371 0.84690 38344 ft 401 kts 279°
2026-04-26 16:05 51.58320 0.75855 38337 ft 401 kts 279°
2026-04-26 16:06 51.59250 0.67042 38335 ft 400 kts 279°
2026-04-26 16:06 51.60494 0.58324 38333 ft 401 kts 294°
2026-04-26 16:06 51.61976 0.54597 38320 ft 404 kts 310°
2026-04-26 16:07 51.63791 0.51746 38317 ft 405 kts 315°
2026-04-26 16:07 51.67957 0.45591 38309 ft 406 kts 315°
2026-04-26 16:08 51.72130 0.39446 38304 ft 407 kts 315°
2026-04-26 16:08 51.76317 0.33248 38310 ft 408 kts 315°
2026-04-26 16:09 51.80501 0.27011 38310 ft 409 kts 314°
2026-04-26 16:09 51.84684 0.20763 38327 ft 413 kts 314°
2026-04-26 16:10 51.88966 0.14351 38330 ft 425 kts 314°
2026-04-26 16:10 51.93329 0.07786 38326 ft 436 kts 314°
2026-04-26 16:11 51.97814 0.01027 38317 ft 441 kts 314°
2026-04-26 16:11 52.01562 -0.04620 38290 ft 443 kts 314°
2026-04-26 16:12 52.06085 -0.11451 38305 ft 444 kts 314°
2026-04-26 16:12 52.12866 -0.21753 38292 ft 444 kts 314°
2026-04-26 16:13 52.17383 -0.28627 38297 ft 444 kts 314°
2026-04-26 16:13 52.21870 -0.35475 38297 ft 444 kts 314°
2026-04-26 16:14 52.26377 -0.42390 38292 ft 444 kts 314°
2026-04-26 16:15 52.33114 -0.52772 38305 ft 444 kts 314°
2026-04-26 16:15 52.37605 -0.59720 38298 ft 444 kts 314°
2026-04-26 16:16 52.44344 -0.70177 38292 ft 444 kts 314°
2026-04-26 16:16 52.48799 -0.77108 38289 ft 444 kts 314°
2026-04-26 16:17 52.53279 -0.84088 38301 ft 444 kts 314°
2026-04-26 16:17 52.57761 -0.91100 38266 ft 443 kts 313°
2026-04-26 16:18 52.59987 -0.94596 37607 ft 442 kts 313°
2026-04-26 16:18 52.64448 -1.01607 36293 ft 445 kts 313°
2026-04-26 16:19 52.68945 -1.08702 35080 ft 450 kts 313°
2026-04-26 16:19 52.71207 -1.12281 34492 ft 452 kts 313°
2026-04-26 16:19 52.75761 -1.19498 33243 ft 456 kts 313°
2026-04-26 16:20 52.78015 -1.23076 32654 ft 456 kts 313°
2026-04-26 16:20 52.82611 -1.30391 31404 ft 460 kts 313°
2026-04-26 16:20 52.84924 -1.34079 30809 ft 463 kts 313°
2026-04-26 16:21 52.87250 -1.37794 30193 ft 465 kts 313°
2026-04-26 16:21 52.89570 -1.41534 29500 ft 467 kts 313°
2026-04-26 16:21 52.91888 -1.45309 28602 ft 469 kts 313°
2026-04-26 16:21 52.94189 -1.49078 27454 ft 454 kts 313°
2026-04-26 16:22 52.96389 -1.52687 26644 ft 434 kts 313°
2026-04-26 16:22 52.98485 -1.56121 25896 ft 416 kts 313°
2026-04-26 16:22 53.00502 -1.59427 25204 ft 400 kts 313°
2026-04-26 16:22 53.02353 -1.62757 24514 ft 382 kts 302°
2026-04-26 16:23 53.03673 -1.66490 23842 ft 368 kts 296°
2026-04-26 16:23 53.04893 -1.70085 23064 ft 358 kts 297°
2026-04-26 16:23 53.06137 -1.73660 22278 ft 351 kts 297°
2026-04-26 16:23 53.07345 -1.77136 21523 ft 345 kts 297°
2026-04-26 16:24 53.08534 -1.80562 20790 ft 339 kts 297°
2026-04-26 16:24 53.09700 -1.83936 20069 ft 334 kts 297°
2026-04-26 16:24 53.10851 -1.87281 19370 ft 331 kts 297°
2026-04-26 16:24 53.12019 -1.90695 18683 ft 351 kts 297°
2026-04-26 16:25 53.13233 -1.94278 17887 ft 357 kts 297°
2026-04-26 16:25 53.14450 -1.97877 16950 ft 354 kts 297°
2026-04-26 16:25 53.15650 -2.01440 16026 ft 350 kts 297°
2026-04-26 16:25 53.16828 -2.04955 15133 ft 346 kts 297°
2026-04-26 16:26 53.17988 -2.08438 14261 ft 341 kts 297°
2026-04-26 16:26 53.19122 -2.11880 13315 ft 337 kts 297°
2026-04-26 16:26 53.20245 -2.15285 12370 ft 332 kts 297°
2026-04-26 16:26 53.21343 -2.18596 11463 ft 328 kts 297°
2026-04-26 16:27 53.22441 -2.21891 10637 ft 323 kts 297°
2026-04-26 16:27 53.23530 -2.25141 9929 ft 318 kts 297°
2026-04-26 16:27 53.24566 -2.28356 9190 ft 313 kts 295°
2026-04-26 16:27 53.25564 -2.31555 8468 ft 308 kts 295°
2026-04-26 16:28 53.26544 -2.34695 7757 ft 299 kts 295°
2026-04-26 16:28 53.27492 -2.37735 7066 ft 291 kts 295°
2026-04-26 16:28 53.28420 -2.40706 6363 ft 285 kts 295°
2026-04-26 16:28 53.29326 -2.43606 5644 ft 278 kts 295°
2026-04-26 16:29 53.30209 -2.46434 4940 ft 273 kts 295°
2026-04-26 16:29 53.31080 -2.49231 4205 ft 268 kts 295°
2026-04-26 16:29 53.31928 -2.51968 3499 ft 264 kts 295°
2026-04-26 16:29 53.32762 -2.54666 2830 ft 258 kts 295°
2026-04-26 16:30 53.33592 -2.57284 2256 ft 252 kts 297°
2026-04-26 16:30 53.34264 -2.59874 2027 ft 233 kts 282°
2026-04-26 16:30 53.34372 -2.62498 2005 ft 225 kts 264°
2026-04-26 16:30 53.34256 -2.65082 2003 ft 217 kts 264°
2026-04-26 16:31 53.34149 -2.67504 1910 ft 201 kts 264°
2026-04-26 16:31 53.34049 -2.69773 1687 ft 191 kts 264°
2026-04-26 16:31 53.33953 -2.71926 1470 ft 179 kts 263°
2026-04-26 16:31 53.33863 -2.73956 1234 ft 167 kts 264°
2026-04-26 16:32 53.33785 -2.75763 1015 ft 148 kts 264°
2026-04-26 16:32 53.33730 -2.76869 833 ft 141 kts 262°
2026-04-26 16:32 53.33641 -2.78976 596 ft 134 kts 264°
2026-04-26 16:32 53.33573 -2.80426 422 ft 134 kts 262°
2026-04-26 16:33 53.33501 -2.81961 284 ft 132 kts 265°
2026-04-26 16:33 53.33434 -2.83488 92 ft 131 kts 264°
2026-04-26 16:33 53.33381 -2.84721 71 ft 67 kts 265°
2026-04-26 16:33 53.33360 -2.85188 80 ft 33 kts 275°
2026-04-26 16:34 53.33407 -2.85458 82 ft 17 kts 292°
2026-04-26 16:34 53.33436 -2.85574 80 ft 0 kts 292°
2026-04-26 16:35 53.33442 -2.85595 83 ft 5 kts 292°
2026-04-26 16:35 53.33470 -2.85649 86 ft 6 kts 342°
2026-04-26 16:35 53.33500 -2.85616 87 ft 6 kts 69°
2026-04-26 16:35 53.33505 -2.85501 84 ft 14 kts 86°
2026-04-26 16:36 53.33514 -2.85286 85 ft 16 kts 86°
2026-04-26 16:36 53.33523 -2.85115 87 ft 13 kts 81°
2026-04-26 16:36 53.33602 -2.85066 87 ft 9 kts 355°
2026-04-26 16:36 53.33636 -2.85117 88 ft 7 kts 258°
2026-04-26 16:37 53.33632 -2.85191 86 ft 0 kts 265°